Change the Weather History Date:

Friday, November 4, 2011

  Actual Average Record
Temperature  
Mean Temperature 46 °F -  
Max Temperature 63 °F 64 °F 74 °F (1977)
Min Temperature 28 °F 31 °F 26 °F (2003)
Degree Days  
Heating Degree Days 20    
Moisture  
Dew Point 20 °F    
Average Humidity 40    
Maximum Humidity 67    
Minimum Humidity 21    
Precipitation  
Precipitation 0.00 in - - ()
Sea Level Pressure  
Sea Level Pressure 29.92 in    
Wind  
Wind Speed 4 mph (ESE)    
Max Wind Speed 17 mph    
Max Gust Speed 24 mph    
Visibility 10 miles    
Events      
Averages and records for this station are not official NWS values.
T = Trace of Precipitation, MM = Missing Value Source: NWS Daily Summary

Daily Weather History Graph

Daily Weather History Graph

Search for Another Location

Airport or City:

Trip Planner

Search our weather history database for the weather conditions in past years. The results will help you decide how hot, cold, wet, or windy it might be!

Date:

Astronomy

Nov. 04, 2011 Rise Set
Actual Time 7:28 AM MDT 6:06 PM MDT
Civil Twilight 7:02 AM MDT 6:32 PM MDT
Nautical Twilight 6:32 AM MDT 7:03 PM MDT
Astronomical Twilight 6:02 AM MDT 7:33 PM MDT
Moon 2:49 PM MDT (11/4) 1:54 AM MDT (11/4)
Length of Visible Light 11h 30m
Length of Day
10h 37m
Waxing Gibbous, 70% of the Moon is Illuminated
Nov 4
Waxing Gibbous
Nov 10
Full
Nov 18
Last Quarter
Nov 24
New
Dec 2
First Quarter

Hourly Weather History & Observations

Time (MDT) Temp. Windchill Dew Point Humidity Pressure Visibility Wind Dir Wind Speed Gust Speed Precip Events Conditions
12:53 AM 28.0 °F 22.8 °F 18.0 °F 66% 30.12 in 10.0 mi North 4.6 mph - N/A   Clear
2:53 AM 28.9 °F 25.2 °F 17.1 °F 61% 30.08 in 10.0 mi East 3.5 mph - N/A   Clear
3:53 AM 30.0 °F 26.5 °F 17.1 °F 59% 30.05 in 10.0 mi East 3.5 mph - N/A   Clear
4:53 AM 30.0 °F - 17.1 °F 59% 30.04 in 10.0 mi Calm Calm - N/A   Clear
5:53 AM 34.0 °F - 16.0 °F 48% 30.04 in 10.0 mi Calm Calm - N/A   Clear
6:53 AM 33.1 °F 26.9 °F 17.1 °F 52% 30.04 in 10.0 mi NNE 6.9 mph - N/A   Clear
7:53 AM 28.9 °F 23.9 °F 19.0 °F 67% 30.10 in 10.0 mi ENE 4.6 mph - N/A   Clear
8:53 AM 37.9 °F - 19.0 °F 47% 30.05 in 10.0 mi Calm Calm - N/A   Clear
9:53 AM 44.1 °F 42.5 °F 18.0 °F 35% 30.05 in 10.0 mi North 3.5 mph - N/A   Clear
10:53 AM 48.9 °F - 17.1 °F 28% 30.01 in 10.0 mi Calm Calm - N/A   Clear
11:53 AM 51.1 °F - 18.0 °F 27% 30.00 in 10.0 mi Calm Calm - N/A   Clear
12:53 PM 53.1 °F - 18.0 °F 25% 29.95 in 10.0 mi Calm Calm - N/A   Clear
1:53 PM 55.0 °F - 19.0 °F 24% 29.91 in 10.0 mi Calm Calm - N/A   Clear
2:53 PM 57.0 °F - 19.9 °F 24% 29.86 in 10.0 mi Calm Calm - N/A   Clear
3:53 PM 61.0 °F - 19.9 °F 21% 29.79 in 10.0 mi SE 6.9 mph - N/A   Clear
4:53 PM 63.0 °F - 24.1 °F 23% 29.75 in 10.0 mi Variable 4.6 mph - N/A   Clear
5:53 PM 55.0 °F - 24.1 °F 30% 29.76 in 10.0 mi South 4.6 mph - N/A   Clear
6:53 PM 55.0 °F - 26.1 °F 33% 29.77 in 10.0 mi SSE 13.8 mph - N/A   Clear
7:53 PM 52.0 °F - 25.0 °F 35% 29.81 in 10.0 mi SSE 10.4 mph - N/A   Clear
8:53 PM 51.1 °F - 25.0 °F 36% 29.77 in 10.0 mi SE 13.8 mph - N/A   Clear
9:53 PM 50.0 °F - 24.1 °F 36% 29.75 in 10.0 mi SE 17.3 mph 24.2 mph N/A   Clear
10:53 PM 50.0 °F - 25.0 °F 38% 29.72 in 10.0 mi SE 11.5 mph - N/A   Clear
11:53 PM 45.0 °F 41.8 °F 25.0 °F 46% 29.70 in 10.0 mi SE 5.8 mph - N/A   Clear